#timestamp,LO_Frequency,Hit,StdDev 
1591192815.0,286047005.9,N
1591192815.9,286047005.9,N
1591192835.8,286047011.9,N
1591192855.6,286047003.2,N
1591192875.4,286047004.2,N
1591192895.3,286047003.9,N
1591192915.1,286047005.5,N
1591192935.8,286047002.0,N
1591192955.7,286046994.1,N
1591192975.5,286046993.1,N
1591192995.4,286046985.4,N
1591193015.2,286046980.5,N
1591193035.0,286046981.5,N
1591193035.9,286046981.5,N
1591193055.8,286046979.7,N
1591193075.6,286046983.1,N
1591193095.4,286046979.3,N
1591193115.3,286046977.4,N
1591193135.1,286046976.9,N
1591193155.9,286046975.1,N
1591193175.7,286046970.0,N
1591193195.5,286046963.7,N
1591193215.4,286046961.4,N
1591193235.2,286046965.1,N
1591193255.0,286046972.2,N
1591193256.0,286046972.2,N
1591193275.8,286046976.5,N
1591193295.6,286046979.1,N
1591193315.5,286046982.6,N
1591193335.3,286046985.6,N
1591193355.1,286046986.6,N
1591193375.9,286046987.1,N
1591193395.7,286046989.0,N
1591193415.6,286046991.0,N
1591193435.4,286046990.7,N
1591193455.2,286046988.7,N
1591193475.1,286046991.3,N
1591193476.0,286046991.3,N
1591193495.8,286046992.8,N
1591193515.6,286046994.1,N
1591193535.5,286046994.3,N
1591193555.3,286046994.3,N
1591193575.2,286046993.1,N
1591193595.9,286046991.3,N
1591193615.7,286046993.2,N
1591193635.6,286046990.5,N
1591193655.4,286046994.1,N
1591193675.2,286046999.5,N
1591193695.1,286046994.5,N
1591193696.0,286046994.5,N
1591193715.8,286046993.5,N
1591193735.7,286046993.7,N
1591193755.5,286046993.4,N
1591193775.3,286046992.3,N
1591193795.2,286046992.6,N
1591193815.0,286046994.5,N
1591193815.9,286046994.5,N
1591193835.8,286046992.3,N
1591193855.6,286046991.9,N
1591193875.4,286046990.5,Y
1591193895.3,286046998.4,P
1591193915.1,286046997.4,N
1591193935.9,286046993.3,N
1591193955.7,286046995.8,N
1591193975.5,286046996.0,N
1591193995.4,286046996.2,N
1591194015.2,286046997.7,N
1591194035.0,286046995.1,N
1591194035.9,286046995.1,N
1591194055.8,286046993.3,Y
1591194075.6,286047001.1,P
1591194095.5,286047003.8,N
1591194115.3,286047004.8,N
1591194135.1,286047005.2,N
1591194155.9,286047003.7,N
1591194175.7,286047001.0,N
1591194195.5,286046998.2,N
1591194215.4,286047001.1,N
1591194235.2,286047000.2,N
1591194255.1,286047003.7,N
1591194256.0,286047003.7,N
1591194275.8,286047003.0,N
1591194295.6,286047007.5,N
1591194315.5,286047006.6,N
1591194335.3,286047007.4,N
1591194355.1,286047001.6,N
1591194375.9,286047003.8,N
1591194395.7,286047009.1,Y
1591194415.6,286047008.1,P
1591194435.4,286047013.3,P
1591194455.2,286047015.0,P
1591194475.1,286047018.8,Y
1591194476.0,286047018.8,P
1591194495.8,286047010.0,N
1591194515.6,286047011.9,N
1591194535.5,286047011.1,Y
1591194555.3,286047002.4,P
1591194575.2,286047004.4,N
1591194595.9,286047003.9,N
1591194615.7,286047000.7,N
1591194635.6,286047000.0,N
1591194655.4,286047002.3,N
1591194675.2,286047002.2,N
1591194695.1,286047003.5,N
1591194715.8,286047007.3,N
1591194735.7,286047006.9,N
1591194755.5,286047001.8,N
1591194775.4,286047003.7,N
1591194795.2,286047004.9,N
1591194815.0,286047006.7,N
1591194815.9,286047006.7,N
1591194835.8,286047006.2,N
1591194855.6,286047008.1,N
1591194875.4,286047008.8,N
1591194895.3,286047004.5,N
1591194915.1,286047002.2,N
1591194935.9,286046994.2,N
1591194955.7,286046988.9,Y
1591194975.5,286046991.6,P
1591194995.4,286046994.5,N
1591195015.2,286046999.5,N
1591195035.1,286046998.7,N
1591195036.0,286046998.7,N
1591195055.8,286046999.5,N
1591195075.6,286046999.5,N
1591195095.5,286046996.6,N
1591195115.3,286046997.2,N
1591195135.1,286046995.8,N
1591195155.9,286046992.1,N
1591195175.7,286046992.9,N
1591195195.6,286046992.5,N
1591195215.4,286046991.9,N
1591195235.2,286046989.1,Y
1591195255.1,286046993.0,P
1591195256.0,286046993.0,P
1591195275.8,286046994.2,P
1591195295.7,286046993.6,Y
1591195315.5,286047000.8,P
1591195335.3,286047000.1,N
1591195355.2,286046999.8,N
1591195375.0,286047002.2,N
1591195375.9,286047002.2,N
1591195395.7,286047000.2,N
1591195415.6,286046998.4,N
1591195435.4,286046999.3,N
1591195455.3,286046999.4,N
1591195475.1,286046996.8,N
1591195476.0,286046996.8,N
1591195495.8,286046995.3,N
1591195515.7,286046997.9,N
1591195535.5,286046995.2,N
1591195555.3,286046995.7,N
1591195575.2,286046995.8,N
1591195595.0,286046995.7,N
1591195595.9,286046995.7,N
1591195615.8,286046995.5,N
1591195635.6,286046997.6,N
1591195655.4,286046997.1,N
1591195675.3,286047001.0,N
1591195695.1,286046998.3,N
1591195715.8,286046998.9,N
1591195735.7,286046999.8,N
1591195755.5,286047004.3,N
1591195775.4,286047002.9,N
1591195795.2,286047005.4,N
1591195815.0,286047007.4,N
1591195815.9,286047007.4,N
1591195835.8,286047008.9,N
1591195855.6,286047010.5,N
1591195875.4,286047012.4,N
1591195895.3,286047009.4,N
1591195915.1,286047011.9,N
1591195935.9,286047009.6,N
1591195955.7,286047009.7,N
1591195975.5,286047012.4,N
1591195995.4,286047015.5,N
1591196015.2,286047014.4,N
1591196035.1,286047017.2,N
1591196036.0,286047017.2,N
1591196055.8,286047016.2,N
1591196075.6,286047016.0,N
1591196095.5,286047016.4,N
1591196115.3,286047016.0,N
1591196135.1,286047018.3,N
1591196155.9,286047020.0,N
1591196175.7,286047018.0,N
1591196195.6,286047016.6,N
1591196215.4,286047018.3,N
1591196235.2,286047020.3,Y
1591196255.1,286047009.1,P
1591196256.0,286047009.1,P
1591196275.8,286047007.4,P
1591196295.7,286047007.3,Y
1591196315.5,286046997.7,P
1591196335.6,286046997.6,N
1591196355.4,286046997.6,N
1591196375.2,286046995.7,N
1591196395.1,286046996.1,N
1591196396.0,286046996.1,N
